GW4799 Weather Reports


Display with metric or nautical units.
time (UTC)temp
F
wind
direction
speed
MPH
gust
MPH
rain 1hr
in
rain 24hr
in
rain mn
in
humidity
%
barometer
mb
20260503225012 59 337 9.0 15.0 0.12 0.68 0.44 97 1014.5
20260503224512 59 337 8.0 13.0 0.12 0.67 0.44 98 1014.5
20260503224012 59 346 8.0 16.0 0.12 0.67 0.43 98 1014.5
20260503223522 58 4 9.0 16.0 0.12 0.66 0.43 99 1014.5
20260503223022 59 11 7.0 12.0 0.11 0.66 0.42 97 1014.4
20260503222512 59 4 7.0 11.0 0.10 0.65 0.41 98 1014.3
20260503222035 58 354 7.0 10.0 0.09 0.63 0.40 98 1014.3
20260503221521 58 358 6.0 10.0 0.09 0.63 0.39 98 1014.3
20260503221012 58 4 8.0 12.0 0.08 0.63 0.39 98 1014.4
20260503220521 58 358 7.0 12.0 0.08 0.62 0.39 99 1014.2
20260503220022 58 353 5.0 9.0 0.04 0.58 0.34 99 1014.3
20260503215522 58 349 7.0 13.0 0.03 0.57 0.33 98 1014.4
20260503215012 58 351 6.0 13.0 0.02 0.56 0.32 99 1014.3
20260503214511 58 344 6.0 9.0 0.02 0.56 0.31 98 1014.4
20260503214016 58 341 7.0 13.0 0.01 0.55 0.31 99 1014.4
20260503213521 58 344 7.0 13.0 0.01 0.56 0.31 98 1014.3
20260503213022 58 350 8.0 13.0 0.01 0.57 0.31 100 1014.3
20260503212511 58 354 7.0 13.0 0.01 0.58 0.31 100 1014.2
20260503212022 57 350 6.0 13.0 0.01 0.59 0.31 100 1014.1
20260503211512 57 348 7.0 11.0 0.01 0.62 0.31 100 1014.2
20260503211021 57 339 5.0 11.0 0.01 0.62 0.31 100 1014.2
20260503210511 58 342 6.0 11.0 0.01 0.62 0.31 98 1014.1
20260503210022 58 351 5.0 10.0 0.01 0.62 0.31 97 1014.2
20260503205511 57 344 5.0 10.0 0.00 0.61 0.30 100 1014.0
20260503205022 57 342 5.0 10.0 0.00 0.61 0.30 100 1014.0
20260503204522 57 344 6.0 9.0 0.00 0.61 0.30 100 1014.0
20260503204012 57 346 6.0 8.0 0.00 0.61 0.30 100 1013.9
20260503203512 57 348 5.0 7.0 0.00 0.61 0.30 100 1013.9
20260503203023 57 348 6.0 11.0 0.00 0.61 0.30 100 1013.9
20260503202512 57 351 5.0 11.0 0.00 0.61 0.30 100 1013.9
20260503202023 57 355 5.0 9.0 0.00 0.61 0.30 100 1013.7
20260503201531 57 346 4.0 6.0 0.01 0.61 0.30 100 1013.7
20260503201011 57 343 3.0 6.0 0.02 0.61 0.30 100 1013.8
20260503200513 57 335 3.0 5.0 0.03 0.61 0.30 100 1013.8
20260503200012 57 332 5.0 9.0 0.04 0.61 0.30 100 1013.9
20260503195511 57 341 5.0 9.0 0.09 0.61 0.30 100 1013.8
20260503195012 57 347 4.0 7.0 0.11 0.61 0.30 100 1013.8
20260503194521 57 345 3.0 6.0 0.11 0.61 0.30 100 1013.8
20260503194013 57 332 4.0 7.0 0.11 0.61 0.30 100 1013.8
20260503193521 57 331 4.0 7.0 0.11 0.61 0.30 99 1014.0
20260503193022 57 329 3.0 5.0 0.11 0.61 0.30 99 1014.0
20260503192512 57 330 3.0 6.0 0.10 0.61 0.30 100 1013.9
20260503192022 57 331 4.0 7.0 0.10 0.61 0.29 99 1013.9
20260503191511 57 324 5.0 9.0 0.11 0.60 0.29 99 1013.9
20260503191022 57 328 6.0 9.0 0.11 0.60 0.28 99 1014.1
20260503190522 57 339 6.0 12.0 0.09 0.58 0.26 99 1014.2
20260503190045 57 342 6.0 12.0 0.08 0.57 0.26 99 1014.1
20260503185512 57 349 6.0 9.0 0.02 0.52 0.20 99 1014.2
20260503185012 57 344 5.0 9.0 0.01 0.50 0.19 100 1014.3
20260503184523 56 345 5.0 8.0 0.01 0.50 0.19 100 1014.2
20260503184021 57 337 3.0 6.0 0.01 0.50 0.19 100 1014.3
20260503183521 57 328 4.0 7.0 0.01 0.50 0.19 100 1014.3
20260503183014 58 336 4.0 7.0 0.01 0.50 0.19 97 1014.4
20260503182521 58 341 4.0 7.0 0.01 0.50 0.19 97 1014.5
20260503182012 58 339 5.0 8.0 0.01 0.50 0.19 97 1014.5
20260503181523 57 337 5.0 8.0 0.01 0.50 0.18 100 1014.6
20260503181022 57 320 5.0 9.0 0.01 0.49 0.18 100 1014.7
20260503180522 57 310 4.0 9.0 0.03 0.49 0.18 100 1014.6
20260503180012 57 319 5.0 9.0 0.04 0.49 0.18 100 1014.6
20260503175512 57 328 6.0 11.0 0.05 0.49 0.18 100 1014.7
20260503175012 58 337 7.0 11.0 0.05 0.49 0.18 97 1014.7
20260503174512 58 341 7.0 10.0 0.05 0.49 0.18 97 1014.6
20260503174022 57 348 6.0 10.0 0.05 0.49 0.18 100 1014.6
20260503173521 57 358 6.0 10.0 0.05 0.49 0.18 100 1014.7
20260503173012 57 7 6.0 10.0 0.06 0.49 0.18 100 1014.6
20260503172512 57 9 6.0 10.0 0.06 0.49 0.18 100 1014.7
20260503172022 58 355 7.0 11.0 0.06 0.49 0.18 97 1014.5
20260503171511 58 346 8.0 11.0 0.07 0.49 0.17 97 1014.7
20260503171012 58 345 6.0 9.0 0.06 0.48 0.17 97 1014.7
20260503170512 58 343 5.0 9.0 0.05 0.46 0.15 97 1014.9
20260503150512 58 349 9.0 14.0 0.06 0.37 0.06 94 1016.0
20260503131012 59 11 2.0 4.0 0.01 0.30 0.30 98 1016.4
20260503130512 59 8 2.0 4.0 0.01 0.30 0.30 98 1016.4
20260503110515 58 4 2.0 3.0 0.01 0.29 0.29 100 1016.7
20260503081512 60 327 7.0 16.0 0.02 0.11 0.11 96 1016.9
20260503081022 61 323 6.0 9.0 0.00 0.09 0.09 96 1017.0
20260503080512 61 323 4.0 8.0 0.00 0.09 0.09 94 1016.6
20260503072523 59 312 3.0 4.0 0.01 0.09 0.09 100 1016.4
20260503072022 59 318 3.0 4.0 0.01 0.09 0.09 100 1016.4
20260503071521 59 315 4.0 7.0 0.01 0.09 0.09 100 1016.3
20260503071022 59 311 5.0 7.0 0.01 0.09 0.09 100 1016.4
20260503070521 59 320 6.0 12.0 0.01 0.09 0.09 100 1016.4
20260503055012 67 315 3.0 4.0 0.00 0.07 0.07 70 1016.5
20260503054512 67 323 2.0 4.0 0.00 0.07 0.07 69 1016.6
20260503054012 67 303 1.0 2.0 0.00 0.07 0.07 69 1016.5
20260503053532 66 314 1.0 2.0 0.00 0.07 0.07 70 1016.5
20260503053011 66 280 1.0 2.0 0.00 0.07 0.07 69 1016.6
20260503052512 66 227 1.0 2.0 0.00 0.07 0.07 69 1016.6
20260503052012 67 220 1.0 2.0 0.00 0.07 0.07 68 1016.5
20260503051513 67 9 1.0 3.0 0.00 0.07 0.07 69 1016.6
20260503051012 67 351 3.0 5.0 0.00 0.07 0.07 67 1016.6
20260503050512 67 350 3.0 5.0 0.00 0.07 0.07 70 1016.8
20260503050021 67 11 2.0 4.0 0.00 0.07 0.07 71 1016.8
20260503045513 67 358 5.0 7.0 0.00 0.07 0.07 69 1016.9
20260503045011 67 351 6.0 8.0 0.00 0.07 0.07 67 1017.0
20260503044512 66 355 6.0 8.0 0.00 0.07 0.07 70 1017.1
20260503044023 67 357 5.0 7.0 0.00 0.07 0.07 70 1017.0
20260503043512 66 356 5.0 7.0 0.00 0.07 0.07 71 1017.1
20260503043022 66 346 9.0 13.0 0.00 0.07 0.07 70 1017.1
20260503042512 66 322 8.0 13.0 0.00 0.07 0.07 70 1017.1
20260503042012 66 326 9.0 13.0 0.00 0.07 0.07 67 1017.0
20260503041522 67 327 9.0 11.0 0.00 0.07 0.07 65 1017.1
20260503041012 68 321 8.0 11.0 0.00 0.07 0.07 61 1017.2
20260503040534 68 337 7.0 11.0 0.00 0.07 0.07 61 1017.1
20260503040022 69 344 14.0 22.0 0.00 0.07 0.07 60 1017.0
20260503035512 68 339 11.0 22.0 0.00 0.07 0.07 61 1016.9
20260503035012 69 329 6.0 12.0 0.00 0.07 0.07 60 1017.1
20260503034512 69 314 7.0 12.0 0.00 0.07 0.07 61 1017.1
20260503034022 69 331 8.0 13.0 0.00 0.07 0.07 59 1017.3
20260503033512 70 342 8.0 13.0 0.00 0.07 0.07 59 1017.4
20260503033022 69 336 9.0 13.0 0.00 0.07 0.07 60 1017.5
20260503032512 69 319 8.0 12.0 0.00 0.07 0.07 62 1017.5
20260503032023 68 312 7.0 11.0 0.00 0.07 0.07 62 1017.6
20260503031511 68 305 7.0 11.0 0.00 0.07 0.07 66 1017.6
20260503031012 67 309 7.0 10.0 0.00 0.07 0.07 67 1017.7
20260503030512 66 304 6.0 10.0 0.00 0.07 0.07 69 1017.9
20260503030022 66 286 6.0 9.0 0.00 0.07 0.07 71 1017.9
20260503025511 67 299 6.0 9.0 0.00 0.07 0.07 68 1018.0
20260503025021 66 303 6.0 9.0 0.00 0.07 0.07 70 1018.1
20260503024512 66 297 5.0 9.0 0.00 0.07 0.07 70 1018.1
20260503024021 67 309 5.0 8.0 0.00 0.07 0.07 69 1018.1
20260503023512 66 312 7.0 10.0 0.00 0.07 0.07 70 1018.3
20260503023012 66 295 7.0 10.0 0.00 0.07 0.07 70 1018.4
20260503022522 65 302 5.0 8.0 0.00 0.07 0.07 70 1018.4
20260503022012 66 318 4.0 7.0 0.00 0.07 0.07 69 1018.7
20260503021522 66 351 3.0 5.0 0.00 0.07 0.07 69 1018.8
20260503021022 65 354 5.0 8.0 0.00 0.07 0.07 75 1018.9
20260503020523 64 322 5.0 8.0 0.00 0.07 0.07 74 1019.0
20260503020033 64 313 5.0 8.0 0.00 0.07 0.07 74 1019.1
20260503015522 64 307 4.0 7.0 0.00 0.07 0.07 74 1019.2
20260503015032 64 321 4.0 7.0 0.00 0.07 0.07 71 1019.4
20260503014531 64 333 2.0 3.0 0.00 0.07 0.07 73 1019.3
20260503014012 64 28 2.0 3.0 0.00 0.07 0.07 72 1019.4
20260503013522 64 51 2.0 3.0 0.00 0.07 0.07 74 1019.4
20260503013022 64 79 2.0 4.0 0.00 0.07 0.07 74 1019.5
20260503012511 62 93 3.0 5.0 0.00 0.07 0.07 78 1019.6
20260503012023 62 333 3.0 5.0 0.00 0.07 0.07 80 1019.7
20260503011511 61 307 3.0 5.0 0.00 0.07 0.07 81 1019.8
20260503011013 61 89 3.0 5.0 0.00 0.07 0.07 83 1019.9
20260503010512 60 115 3.0 5.0 0.00 0.07 0.07 84 1019.9
20260503010012 60 133 3.0 6.0 0.00 0.07 0.07 86 1020.0
20260503005512 60 137 3.0 6.0 0.00 0.07 0.07 86 1020.1
20260503005032 59 122 3.0 6.0 0.00 0.07 0.07 86 1020.1
20260503004521 59 71 3.0 4.0 0.00 0.07 0.07 87 1020.1
20260503004023 59 189 3.0 4.0 0.00 0.07 0.07 88 1020.2
20260503003512 59 215 2.0 4.0 0.00 0.07 0.07 88 1020.2
20260503003012 59 130 2.0 4.0 0.00 0.07 0.07 88 1020.2
20260503002522 58 94 3.0 4.0 0.00 0.07 0.07 88 1020.4
20260503002013 59 101 3.0 4.0 0.00 0.07 0.07 87 1020.4
20260503001512 59 132 3.0 4.0 0.00 0.07 0.07 88 1020.4
20260503001022 59 122 2.0 4.0 0.00 0.07 0.07 88 1020.3
20260503000512 59 104 2.0 4.0 0.00 0.07 0.07 88 1020.5
20260503000022 59 119 2.0 4.0 0.00 0.07 0.07 88 1020.5
20260502235521 59 89 1.0 3.0 0.00 0.07 0.07 88 1020.5
20260502235012 59 108 2.0 3.0 0.00 0.07 0.07 86 1020.6
20260502234522 58 132 2.0 3.0 0.00 0.07 0.07 87 1020.6
20260502234033 58 116 2.0 3.0 0.00 0.07 0.07 89 1020.4
20260502233522 58 114 2.0 3.0 0.00 0.07 0.07 89 1020.5
20260502233022 58 107 2.0 3.0 0.00 0.07 0.07 90 1020.6
20260502232512 58 118 1.0 3.0 0.00 0.07 0.07 91 1020.5
20260502232012 57 123 1.0 3.0 0.00 0.07 0.07 92 1020.8
20260502231511 57 47 1.0 3.0 0.00 0.07 0.07 92 1020.9
20260502231012 57 73 2.0 4.0 0.00 0.07 0.07 92 1020.8
20260502230534 57 119 2.0 4.0 0.00 0.07 0.07 92 1020.8
20260502230022 57 130 1.0 3.0 0.00 0.07 0.07 94 1020.8
20260502225522 57 214 1.0 3.0 0.00 0.07 0.07 90 1020.8